Location: Skalnate Pleso
(49.1889°N, 20.2450°E)
Time: 04:11:37
(UTC+02:00)

COSMOS 2428 - Pass Details

Date: 28 February 2020
Orbit: 846 x 856 km, 70.9° (Epoch: 06 April)

Event Time Altitude Azimuth Distance (km) Brightness Sun altitude
Exits shadow 01:34:33 14° 12° (NNE) 2,194 5.3 -43.7°
Drops below altitude 10° 01:35:30 10° 17° (NNE) 2,500 5.7 -43.6°
Sets 01:38:12 0° 26° (NNE) 3,439 6.6 -43.4°
